Location: Cubitt Town
(51.4833°N, 0.0000°E)
Time: 00:22:51
(UTC+00:00)

Helios 1B rocket - Pass Details

Date: 15 May 2026
Orbit: 459 x 465 km, 98.2° (Epoch: 9 June)

Event Time Altitude Azimuth Distance (km) Brightness Sun altitude
Exits shadow 21:26:19 10° 96° (E) 1,639 4.3 -12.2°
Reaches altitude 10° 21:26:20 10° 96° (E) 1,637 4.3 -12.2°
Maximum altitude 21:28:24 15° 60° (ENE) 1,353 4.3 -12.4°
Drops below altitude 10° 21:30:29 10° 23° (NNE) 1,643 5.2 -12.6°
Sets 21:33:11 0° 0° (N) 2,524 6.7 -12.8°
